Regional Weather Roundup
Issued by NWS

Home | Current Version | Previous Version | Graphics & Text | Print | Product List | Glossary On
Versions: 1 2 3 4 5 6 7 8 9 10 11 12 13 14 15 16 17 18 19 20 21 22 23 24 25 26 27 28 29 30 31 32 33 34 35 36 37 38 39 40 41 42 43 44 45 46 47 48 49 50
000
ASUS43 KLOT 180806
RWRIL

ILLINOIS REGIONAL WEATHER ROUNDUP
NATIONAL WEATHER SERVICE CHICAGO/ROMEOVILLE IL
200 AM CST THU DEC 18 2014

NOTE: "FAIR" INDICATES FEW OR NO CLOUDS BELOW 12,000 FEET WITH NO
SIGNIFICANT WEATHER AND/OR OBSTRUCTIONS TO VISIBILITY.

* THESE STATIONS ARE NOT UNDER NWS QUALITY CONTROL. THEY ALSO MAY NOT
  REPORT WEATHER SUCH AS PRECIPITATION OR FOG.

ILZ001-002-007-009-015-016-024-180900-
NORTHWEST ILLINOIS

CITY           SKY/WX    TMP DP  RH WIND       PRES   REMARKS
MOLINE         CLEAR     17  13  84 S5        30.31R WCI  10
STERLING*      PTCLDY    19  14  79 CALM      30.28F
SAVANNA*       CLEAR     17  15  92 CALM      30.29S
$$

ILZ003-004-008-010-011-017-018-180900-
NORTH CENTRAL ILLINOIS

CITY           SKY/WX    TMP DP  RH WIND       PRES   REMARKS
ROCKFORD       CLOUDY    23  14  68 N5        30.30F WCI  17
FREEPORT*      CLEAR     16  13  90 CALM      30.29F
ROCHELLE*      CLOUDY    21  16  81 N5        30.29S WCI  14
DE KALB*       CLOUDY    20  15  79 NW6       30.27F WCI  13
PERU*          MOCLDY    20  17  87 CALM      30.30S
$$

ILZ005-006-012>014-019>023-180900-
NORTHEAST ILLINOIS

CITY           SKY/WX    TMP DP  RH WIND       PRES   REMARKS
CHICAGO-OHARE  CLOUDY    23  15  71 NW6       30.28S WCI  16
CHICAGO-MIDWAY CLOUDY    26  17  68 NW7       30.29S WCI  18
AURORA         CLOUDY    24  16  71 NW8       30.28S WCI  15
LANSING*       CLOUDY    25  18  73 W3        30.29S
JOLIET*        CLOUDY    23  16  74 CALM      30.29F
WAUKEGAN       CLEAR     19  13  77 W6        30.27S WCI  11
DUPAGE AIRPORT CLOUDY    24  16  71 N7        30.27S WCI  16
KANKAKEE*      CLOUDY    25  19  77 N3        30.30S
WHEELING       PTCLDY    20  14  77 NW5       30.30S WCI  13
MORRIS*        CLOUDY    19  17  91 CALM      30.29S
ROMEOVILLE*    CLOUDY    24  17  75 N5        30.28F WCI  18
NORTHERLY ISL    N/A     25  16  68 W7          N/A  WCI  17
$$

LMZ740>746-180900-
SOUTHERN LAKE MICHIGAN

STATION/POSITION SKY/WX   TEMP    WIND        PRES    VSBY  WAVE
                          AIR SEA DIR/SP/G                  HT/PER
                          (F)     (DEG/KT/KT) (MB)    (MI)  (FT/S)
WAUKEGAN HARBOR            21     290/ 11/ 14   N/A
HARRISON CRIB              25     290/  6/  8   N/A
BURNHAM HARBOR             25     280/  6/  8   N/A
CALUMET HARBOR             25     240/  3/  6 1024.2R
$$

ILZ025>027-034>036-040-047-049-050-058-095>099-180900-
WEST-CENTRAL ILLINOIS

CITY           SKY/WX    TMP DP  RH WIND       PRES   REMARKS
QUINCY         CLOUDY    25  21  85 NE5       30.27F WCI  19
GALESBURG*     CLEAR     16  15  95 CALM      30.30S
MACOMB*        PTCLDY    21  19  94 CALM      30.32S
JACKSONVILLE*  CLOUDY    27  24  87 CALM      30.30S
PITTSFIELD*    CLOUDY    27  23  85 NE3       30.29F
$$

ILZ028>032-037-038-041>044-048-051>054-059>061-180900-
CENTRAL ILLINOIS

CITY           SKY/WX    TMP DP  RH WIND       PRES   REMARKS
PONTIAC        MOCLDY    21  19  91 CALM      30.32R
BLOOMINGTON    CLOUDY    22  20  92 CALM      30.30R
DECATUR        CLOUDY    25  20  81 CALM      30.29F
PEORIA         CLOUDY    21  16  81 CALM      30.32R
LACON*         CLOUDY    16  14  91 CALM      30.31R
LINCOLN*       CLOUDY    24  21  90 CALM      30.33S
SPRINGFIELD    CLOUDY    25  21  85 NE3       30.30F
TAYLORVILLE    CLOUDY    23  21  93 CALM      30.30F
$$

ILZ033-039-045-046-055>057-062-063-180900-
EAST-CENTRAL ILLINOIS

CITY           SKY/WX    TMP DP  RH WIND       PRES   REMARKS
CHAMPAIGN      CLOUDY    26  19  74 CALM      30.30R
DANVILLE*      CLOUDY    24  19  78 N3        30.28R
RANTOUL*       CLOUDY    27  19  74 CALM      30.31R
MATTOON        CLOUDY    24  18  77 CALM      30.29S
PARIS*         CLOUDY    26  21  81 CALM      30.31S
$$

ILZ079-100>102-180900-
SOUTHWEST ILLINOIS

CITY           SKY/WX    TMP DP  RH WIND       PRES   REMARKS
ALTON          CLOUDY    28  24  83 E6        30.29F WCI  22
BELLEVILLE     CLOUDY    29  26  86 NE6       30.28F WCI  23
CAHOKIA*       CLOUDY    31  26  82 E7        30.29F WCI  24
SPARTA*        CLOUDY    31  27  87 E7        30.27F WCI  24
$$

ILZ064>066-069>071-074>076-080>082-084>086-088>090-092>094-180900-
SOUTH-CENTRAL ILLINOIS

CITY           SKY/WX    TMP DP  RH WIND       PRES   REMARKS
CARBONDALE     CLOUDY    32  26  78 NE7       30.28F WCI  26
CAIRO*         LGT SNOW  35  33  93 CALM      30.28F
EFFINGHAM*     CLOUDY    26  20  79 NE3       30.32F
MARION         CLOUDY    32  27  80 NE6       30.29F WCI  26
MT. VERNON     CLOUDY    28  21  74 NE5       30.30F WCI  23
CENTRALIA*     CLOUDY    28  23  81 E6        30.29F WCI  22
SALEM*         CLOUDY    30  25  82 E3        30.30F
METROPOLIS*    LGT RAIN  33  33  99 CALM      30.27F
$$

ILZ067-068-072-073-078-083-087-091-180900-
SOUTHEAST ILLINOIS

CITY           SKY/WX    TMP DP  RH WIND       PRES   REMARKS
LAWRENCEVILLE  CLOUDY    26  21  81 NE6       30.33R WCI  19
FLORA*         CLOUDY    26  22  84 NE3       30.32S
FAIRFIELD*     CLOUDY    28  25  86 NE3       30.30F
HARRISBURG*    CLOUDY    31  27  84 NE5       30.31F WCI  26
ROBINSON*      CLOUDY    26  21  83 N3        30.34S
CARMI*         CLOUDY    31  28  90 NE3       30.30F
$$

ABBREVIATIONS USED IN REMARKS
   TC - TEMPERATURE IN CELSIUS
  WCI - WIND CHILL INDEX
   HX - HEAT INDEX
  VSB - VISIBILITY
$$



USA.gov is the U.S. government's official web portal to all federal, state and local government web resources and services.